This is the latest recevied weather packets stored in our database for station/object DH0DM-13. If no packets are shown the sender has not sent any weather packets the latest 10 day(s).
| Time | Temp. | Humidity | Pressure | Rain* | Wind** | Luminosity | Snow |
|---|---|---|---|---|---|---|---|
| 1787711347 | 13.33° C | 86% | 992.3 hPa | 0 mm | 0.89 m/s, 71° | - | - |
| 1787710746 | 13.33° C | 86% | 992.1 hPa | 0 mm | 1.79 m/s, 73° | - | - |
| 1787710145 | 13.33° C | 86% | 992.2 hPa | 0 mm | 0 m/s | - | - |
| 1787709544 | 13.33° C | 85% | 992.2 hPa | 0 mm | 4.92 m/s, 98° | - | - |
| 1787708944 | 13.33° C | 85% | 992 hPa | 0 mm | 1.79 m/s, 136° | - | - |
| 1787708343 | 13.33° C | 85% | 992 hPa | 0 mm | 3.58 m/s, 62° | - | - |
| 1787707742 | 13.33° C | 85% | 992 hPa | 0 mm | 2.68 m/s, 60° | - | - |
| 1787707141 | 13.33° C | 85% | 991.8 hPa | 0 mm | 2.68 m/s, 80° | - | - |
| 1787706540 | 13.33° C | 85% | 991.8 hPa | 0 mm | 0.89 m/s, 92° | - | - |
| 1787705939 | 13.33° C | 85% | 991.9 hPa | 0 mm | 2.68 m/s, 94° | - | - |
| 1787705338 | 13.33° C | 85% | 991.9 hPa | 0 mm | 0.89 m/s, 103° | - | - |
| 1787704737 | 13.33° C | 85% | 991.8 hPa | 0 mm | 3.13 m/s, 88° | - | - |
| 1787704136 | 13.33° C | 85% | 991.7 hPa | 0 mm | 4.92 m/s, 84° | - | - |
| 1787703535 | 13.33° C | 84% | 991.6 hPa | 0 mm | 6.71 m/s, 60° | - | - |
| 1787702935 | 13.33° C | 84% | 991.7 hPa | 0 mm | 6.71 m/s, 36° | - | - |
| 1787702334 | 13.33° C | 83% | 991.7 hPa | 0 mm | 1.79 m/s, 58° | - | - |
| 1787701731 | 13.33° C | 83% | 991.7 hPa | 0 mm | 0.89 m/s, 58° | - | - |
| 1787701131 | 13.33° C | 82% | 991.8 hPa | 0 mm | 4.02 m/s, 96° | - | - |
| 1787700530 | 13.33° C | 82% | 991.6 hPa | 0 mm | 0.89 m/s, 144° | - | - |
| 1787699929 | 13.89° C | 81% | 991.6 hPa | 0 mm | 0 m/s | - | - |
| 1787699328 | 13.89° C | 81% | 991.6 hPa | 0 mm | 1.34 m/s, 79° | - | - |
| 1787698727 | 13.33° C | 81% | 991.5 hPa | 0 mm | 0 m/s | - | - |
| 1787698126 | 13.89° C | 80% | 991.5 hPa | 0 mm | 0.45 m/s, 224° | - | - |
| 1787697525 | 13.89° C | 79% | 991.7 hPa | 0 mm | 0.89 m/s, 111° | - | - |
| 1787696924 | 14.44° C | 78% | 991.6 hPa | 0 mm | 4.47 m/s, 63° | - | - |
* Rain since midnight (hover to see other rain measurements)
** Current wind speed in m/s (hover to see current wind gust speed)